| time (UTC) | temp F | wind direction | speed MPH | gust MPH | rain 1hr in | rain 24hr in | rain mn in | humidity % | barometer mb |
| 20260504060238 | 68 | 260 | 0.0 | 0.0 | 0.00 | 0.00 | 0.00 | 26 | |
| 20260504050751 | 70 | 320 | 0.0 | 0.0 | 0.00 | 0.00 | 0.00 | 24 | |
| 20260504050409 | 70 | 320 | 0.0 | 0.0 | 0.00 | 0.00 | 0.00 | 24 | |
| 20260504050315 | 70 | 289 | 0.0 | 0.0 | 0.00 | 0.00 | 0.00 | 24 | |
| 20260504045909 | 70 | 289 | 0.0 | 0.0 | 0.00 | 0.00 | 0.00 | 24 | |
| 20260504045831 | 70 | 273 | 0.0 | 0.0 | 0.00 | 0.00 | 0.00 | 24 | |
| 20260504045440 | 71 | 267 | 0.0 | 1.0 | 0.00 | 0.00 | 0.00 | 24 | |
| 20260504045409 | 70 | 273 | 0.0 | 0.0 | 0.00 | 0.00 | 0.00 | 24 | |
| 20260504044956 | 71 | 249 | 0.0 | 5.0 | 0.00 | 0.00 | 0.00 | 24 | |
| 20260504044921 | 71 | 249 | 0.0 | 5.0 | 0.00 | 0.00 | 0.00 | 24 | |
| 20260504044909 | 71 | 267 | 0.0 | 1.0 | 0.00 | 0.00 | 0.00 | 24 | |
| 20260504044409 | 71 | 249 | 0.0 | 5.0 | 0.00 | 0.00 | 0.00 | 24 | |
| 20260504044315 | 71 | 251 | 0.0 | 5.0 | 0.00 | 0.00 | 0.00 | 24 | |
| 20260504043909 | 71 | 251 | 0.0 | 5.0 | 0.00 | 0.00 | 0.00 | 24 | |
| 20260504043757 | 72 | 243 | 0.0 | 8.0 | 0.00 | 0.00 | 0.00 | 24 | |
| 20260504043409 | 72 | 243 | 0.0 | 8.0 | 0.00 | 0.00 | 0.00 | 24 | |
| 20260504043326 | 72 | 230 | 0.0 | 8.0 | 0.00 | 0.00 | 0.00 | 24 | |
| 20260504042909 | 72 | 230 | 0.0 | 8.0 | 0.00 | 0.00 | 0.00 | 24 | |
| 20260504042409 | 72 | 233 | 5.0 | 10.0 | 0.00 | 0.00 | 0.00 | 23 | |
| 20260504041909 | 72 | 233 | 5.0 | 10.0 | 0.00 | 0.00 | 0.00 | 23 | |
| 20260504041821 | 72 | 240 | 0.0 | 6.0 | 0.00 | 0.00 | 0.00 | 23 | |
| 20260504041410 | 72 | 230 | 1.0 | 6.0 | 0.00 | 0.00 | 0.00 | 23 | |
| 20260504040911 | 73 | 237 | 0.0 | 6.0 | 0.00 | 0.00 | 0.00 | 23 | |
| 20260504040909 | 72 | 230 | 1.0 | 6.0 | 0.00 | 0.00 | 0.00 | 23 | |
| 20260504040829 | 73 | 237 | 0.0 | 6.0 | 0.00 | 0.00 | 0.00 | 23 | |
| 20260504040439 | 73 | 246 | 1.0 | 7.0 | 0.00 | 0.00 | 0.00 | 23 | |
| 20260504040409 | 73 | 237 | 0.0 | 6.0 | 0.00 | 0.00 | 0.00 | 23 | |
| 20260504040004 | 73 | 234 | 2.0 | 7.0 | 0.00 | 0.00 | 0.00 | 23 | |
| 20260504035909 | 73 | 246 | 1.0 | 7.0 | 0.00 | 0.00 | 0.00 | 23 | |
| 20260504035411 | 74 | 238 | 2.0 | 8.0 | 0.00 | 0.00 | 0.00 | 23 | |
| 20260504034909 | 74 | 238 | 2.0 | 8.0 | 0.00 | 0.00 | 0.00 | 23 | |
| 20260504034843 | 74 | 235 | 1.0 | 8.0 | 0.00 | 0.00 | 0.00 | 23 | |
| 20260504034409 | 74 | 235 | 1.0 | 8.0 | 0.00 | 0.00 | 0.00 | 23 | |
| 20260504034346 | 74 | 232 | 3.0 | 8.0 | 0.00 | 0.00 | 0.00 | 23 | |
| 20260504033909 | 74 | 232 | 3.0 | 8.0 | 0.00 | 0.00 | 0.00 | 23 | |
| 20260504033807 | 74 | 233 | 5.0 | 10.0 | 0.00 | 0.00 | 0.00 | 23 | |
| 20260504033410 | 74 | 236 | 6.0 | 10.0 | 0.00 | 0.00 | 0.00 | 23 | |
| 20260504033008 | 74 | 240 | 4.0 | 10.0 | 0.00 | 0.00 | 0.00 | 24 | |
| 20260504032917 | 74 | 240 | 4.0 | 10.0 | 0.00 | 0.00 | 0.00 | 24 | |
| 20260504032909 | 74 | 236 | 6.0 | 10.0 | 0.00 | 0.00 | 0.00 | 23 | |
| 20260504032410 | 74 | 240 | 4.0 | 10.0 | 0.00 | 0.00 | 0.00 | 24 | |
| 20260504032358 | 75 | 236 | 6.0 | 12.0 | 0.00 | 0.00 | 0.00 | 23 | |
| 20260504031916 | 75 | 236 | 8.0 | 12.0 | 0.00 | 0.00 | 0.00 | 23 | |
| 20260504031909 | 75 | 236 | 6.0 | 12.0 | 0.00 | 0.00 | 0.00 | 23 | |
| 20260504031453 | 75 | 233 | 7.0 | 12.0 | 0.00 | 0.00 | 0.00 | 23 | |
| 20260504031415 | 75 | 233 | 7.0 | 12.0 | 0.00 | 0.00 | 0.00 | 23 | |
| 20260504031411 | 75 | 236 | 8.0 | 12.0 | 0.00 | 0.00 | 0.00 | 23 | |
| 20260504030910 | 75 | 233 | 7.0 | 12.0 | 0.00 | 0.00 | 0.00 | 23 | |
| 20260504030409 | 75 | 240 | 7.0 | 12.0 | 0.00 | 0.00 | 0.00 | 24 | |
| 20260504030329 | 75 | 241 | 5.0 | 10.0 | 0.00 | 0.00 | 0.00 | 24 | |
| 20260504025910 | 76 | 240 | 6.0 | 11.0 | 0.00 | 0.00 | 0.00 | 24 | |
| 20260504025409 | 76 | 240 | 6.0 | 11.0 | 0.00 | 0.00 | 0.00 | 24 | |
| 20260504024549 | 77 | 225 | 9.0 | 14.0 | 0.00 | 0.00 | 0.00 | 24 | |
| 20260504024411 | 77 | 225 | 9.0 | 14.0 | 0.00 | 0.00 | 0.00 | 24 | |
| 20260504024301 | 77 | 228 | 8.0 | 14.0 | 0.00 | 0.00 | 0.00 | 24 | |
| 20260504023909 | 77 | 228 | 8.0 | 14.0 | 0.00 | 0.00 | 0.00 | 24 | |
| 20260504023602 | 78 | 237 | 9.0 | 14.0 | 0.00 | 0.00 | 0.00 | 23 | |
| 20260504023410 | 78 | 237 | 9.0 | 14.0 | 0.00 | 0.00 | 0.00 | 23 | |
| 20260504023117 | 78 | 238 | 8.0 | 12.0 | 0.00 | 0.00 | 0.00 | 24 | |
| 20260504022909 | 78 | 238 | 8.0 | 12.0 | 0.00 | 0.00 | 0.00 | 24 | |
| 20260504022705 | 78 | 229 | 8.0 | 13.0 | 0.00 | 0.00 | 0.00 | 24 | |
| 20260504022409 | 78 | 229 | 8.0 | 13.0 | 0.00 | 0.00 | 0.00 | 24 | |
| 20260504022128 | 78 | 228 | 9.0 | 13.0 | 0.00 | 0.00 | 0.00 | 24 | |
| 20260504021909 | 78 | 228 | 9.0 | 13.0 | 0.00 | 0.00 | 0.00 | 24 | |
| 20260504021712 | 79 | 231 | 7.0 | 12.0 | 0.00 | 0.00 | 0.00 | 24 | |
| 20260504021409 | 79 | 231 | 7.0 | 12.0 | 0.00 | 0.00 | 0.00 | 24 | |
| 20260504021335 | 79 | 232 | 6.0 | 10.0 | 0.00 | 0.00 | 0.00 | 25 | |
| 20260504020910 | 79 | 232 | 6.0 | 10.0 | 0.00 | 0.00 | 0.00 | 25 | |
| 20260504020738 | 79 | 232 | 7.0 | 13.0 | 0.00 | 0.00 | 0.00 | 25 | |
| 20260504020409 | 79 | 232 | 7.0 | 13.0 | 0.00 | 0.00 | 0.00 | 25 | |
| 20260504020327 | 79 | 233 | 6.0 | 16.0 | 0.00 | 0.00 | 0.00 | 25 | |
| 20260504015934 | 80 | 232 | 9.0 | 16.0 | 0.00 | 0.00 | 0.00 | 25 | |
| 20260504015909 | 79 | 233 | 6.0 | 16.0 | 0.00 | 0.00 | 0.00 | 25 | |
| 20260504015409 | 80 | 232 | 9.0 | 16.0 | 0.00 | 0.00 | 0.00 | 25 | |
| 20260504014756 | 81 | 236 | 9.0 | 15.0 | 0.00 | 0.00 | 0.00 | 26 | |
| 20260504014409 | 81 | 236 | 9.0 | 15.0 | 0.00 | 0.00 | 0.00 | 26 | |
| 20260504014311 | 81 | 240 | 7.0 | 15.0 | 0.00 | 0.00 | 0.00 | 26 | |
| 20260504013909 | 81 | 240 | 7.0 | 15.0 | 0.00 | 0.00 | 0.00 | 26 | |
| 20260504013720 | 82 | 226 | 8.0 | 13.0 | 0.00 | 0.00 | 0.00 | 26 | |
| 20260504013409 | 82 | 226 | 8.0 | 13.0 | 0.00 | 0.00 | 0.00 | 26 | |
| 20260504013357 | 83 | 234 | 9.0 | 14.0 | 0.00 | 0.00 | 0.00 | 25 | |
| 20260504012909 | 83 | 234 | 9.0 | 14.0 | 0.00 | 0.00 | 0.00 | 25 | |
| 20260504012753 | 83 | 233 | 10.0 | 18.0 | 0.00 | 0.00 | 0.00 | 26 | |
| 20260504012409 | 83 | 233 | 10.0 | 18.0 | 0.00 | 0.00 | 0.00 | 26 | |
| 20260504012238 | 84 | 232 | 9.0 | 19.0 | 0.00 | 0.00 | 0.00 | 26 | |
| 20260504011910 | 84 | 232 | 9.0 | 19.0 | 0.00 | 0.00 | 0.00 | 26 | |
| 20260504011722 | 85 | 235 | 11.0 | 19.0 | 0.00 | 0.00 | 0.00 | 26 | |
| 20260504011411 | 85 | 235 | 11.0 | 19.0 | 0.00 | 0.00 | 0.00 | 26 | |
| 20260504011329 | 86 | 238 | 9.0 | 16.0 | 0.00 | 0.00 | 0.00 | 26 | |
| 20260504010910 | 86 | 238 | 9.0 | 16.0 | 0.00 | 0.00 | 0.00 | 26 | |
| 20260504010743 | 86 | 232 | 12.0 | 16.0 | 0.00 | 0.00 | 0.00 | 27 | |
| 20260504010409 | 86 | 232 | 12.0 | 16.0 | 0.00 | 0.00 | 0.00 | 27 | |
| 20260504010253 | 85 | 245 | 9.0 | 19.0 | 0.00 | 0.00 | 0.00 | 26 | |
| 20260504005909 | 85 | 245 | 9.0 | 19.0 | 0.00 | 0.00 | 0.00 | 26 | |
| 20260504005817 | 85 | 244 | 9.0 | 19.0 | 0.00 | 0.00 | 0.00 | 27 | |
| 20260504005409 | 85 | 244 | 9.0 | 19.0 | 0.00 | 0.00 | 0.00 | 27 | |
| 20260504005212 | 85 | 240 | 10.0 | 20.0 | 0.00 | 0.00 | 0.00 | 28 | |
| 20260504004911 | 85 | 240 | 10.0 | 20.0 | 0.00 | 0.00 | 0.00 | 28 | |
| 20260504004811 | 84 | 233 | 12.0 | 20.0 | 0.00 | 0.00 | 0.00 | 27 | |
| 20260504004410 | 84 | 233 | 12.0 | 20.0 | 0.00 | 0.00 | 0.00 | 27 | |
| 20260504004252 | 84 | 234 | 11.0 | 18.0 | 0.00 | 0.00 | 0.00 | 28 | |
| 20260504003909 | 84 | 234 | 11.0 | 18.0 | 0.00 | 0.00 | 0.00 | 28 | |
| 20260504003812 | 85 | 229 | 12.0 | 18.0 | 0.00 | 0.00 | 0.00 | 29 | |
| 20260504003411 | 85 | 229 | 12.0 | 18.0 | 0.00 | 0.00 | 0.00 | 29 | |
| 20260504003327 | 86 | 231 | 10.0 | 18.0 | 0.00 | 0.00 | 0.00 | 29 | |
| 20260504002909 | 86 | 231 | 10.0 | 18.0 | 0.00 | 0.00 | 0.00 | 29 | |
| 20260504002816 | 87 | 235 | 11.0 | 23.0 | 0.00 | 0.00 | 0.00 | 29 | |
| 20260504002410 | 87 | 235 | 11.0 | 23.0 | 0.00 | 0.00 | 0.00 | 29 | |
| 20260504002320 | 88 | 238 | 14.0 | 23.0 | 0.00 | 0.00 | 0.00 | 30 | |
| 20260504001909 | 88 | 238 | 14.0 | 23.0 | 0.00 | 0.00 | 0.00 | 30 | |
| 20260504001813 | 89 | 235 | 11.0 | 17.0 | 0.00 | 0.00 | 0.00 | 31 | |
| 20260504001410 | 90 | 240 | 11.0 | 20.0 | 0.00 | 0.00 | 0.00 | 31 | |
| 20260504000911 | 90 | 240 | 11.0 | 20.0 | 0.00 | 0.00 | 0.00 | 31 | |
| 20260504000810 | 90 | 231 | 13.0 | 20.0 | 0.00 | 0.00 | 0.00 | 32 | |
| 20260504000409 | 90 | 231 | 13.0 | 20.0 | 0.00 | 0.00 | 0.00 | 32 | |
| 20260504000358 | 91 | 240 | 11.0 | 18.0 | 0.00 | 0.00 | 0.00 | 32 | |
| 20260503235910 | 91 | 240 | 11.0 | 18.0 | 0.00 | 0.00 | 0.00 | 32 | |
| 20260503235756 | 91 | 250 | 11.0 | 20.0 | 0.00 | 0.00 | 0.00 | 33 | |
| 20260503235409 | 91 | 250 | 11.0 | 20.0 | 0.00 | 0.00 | 0.00 | 33 | |
| 20260503235403 | 91 | 243 | 12.0 | 20.0 | 0.00 | 0.00 | 0.00 | 33 | |
| 20260503234910 | 91 | 243 | 12.0 | 20.0 | 0.00 | 0.00 | 0.00 | 33 | |
| 20260503234844 | 91 | 238 | 11.0 | 19.0 | 0.00 | 0.00 | 0.00 | 33 | |
| 20260503234409 | 91 | 238 | 11.0 | 19.0 | 0.00 | 0.00 | 0.00 | 33 | |
| 20260503234349 | 90 | 258 | 10.0 | 18.0 | 0.00 | 0.00 | 0.00 | 33 | |
| 20260503233909 | 90 | 258 | 10.0 | 18.0 | 0.00 | 0.00 | 0.00 | 33 | |
| 20260503233755 | 90 | 233 | 10.0 | 18.0 | 0.00 | 0.00 | 0.00 | 33 | |
| 20260503233409 | 90 | 233 | 10.0 | 18.0 | 0.00 | 0.00 | 0.00 | 33 | |
| 20260503233316 | 91 | 243 | 12.0 | 18.0 | 0.00 | 0.00 | 0.00 | 33 | |
| 20260503233054 | 92 | 232 | 11.0 | 16.0 | 0.00 | 0.00 | 0.00 | 33 | |
| 20260503232909 | 91 | 243 | 12.0 | 18.0 | 0.00 | 0.00 | 0.00 | 33 | |
| 20260503232409 | 92 | 232 | 11.0 | 16.0 | 0.00 | 0.00 | 0.00 | 33 | |
| 20260503231909 | 92 | 236 | 11.0 | 16.0 | 0.00 | 0.00 | 0.00 | 33 | |
| 20260503231822 | 92 | 245 | 9.0 | 16.0 | 0.00 | 0.00 | 0.00 | 33 | |
| 20260503231409 | 92 | 245 | 9.0 | 16.0 | 0.00 | 0.00 | 0.00 | 33 | |
| 20260503231336 | 92 | 234 | 10.0 | 16.0 | 0.00 | 0.00 | 0.00 | 33 | |
| 20260503230910 | 92 | 234 | 10.0 | 16.0 | 0.00 | 0.00 | 0.00 | 33 | |
| 20260503230812 | 91 | 231 | 8.0 | 14.0 | 0.00 | 0.00 | 0.00 | 33 | |
| 20260503230409 | 91 | 231 | 8.0 | 14.0 | 0.00 | 0.00 | 0.00 | 33 | |
| 20260503230254 | 91 | 251 | 9.0 | 15.0 | 0.00 | 0.00 | 0.00 | 33 | |
| 20260503225909 | 91 | 251 | 9.0 | 15.0 | 0.00 | 0.00 | 0.00 | 33 | |
| 20260503225754 | 91 | 233 | 9.0 | 15.0 | 0.00 | 0.00 | 0.00 | 34 | |
| 20260503225532 | 91 | 215 | 10.0 | 16.0 | 0.00 | 0.00 | 0.00 | 34 | |
| 20260503225409 | 91 | 233 | 9.0 | 15.0 | 0.00 | 0.00 | 0.00 | 34 | |
| 20260503224909 | 91 | 215 | 10.0 | 16.0 | 0.00 | 0.00 | 0.00 | 34 | |
| 20260503224849 | 92 | 222 | 10.0 | 16.0 | 0.00 | 0.00 | 0.00 | 33 | |
| 20260503224458 | 92 | 229 | 8.0 | 15.0 | 0.00 | 0.00 | 0.00 | 34 | |
| 20260503224417 | 92 | 229 | 8.0 | 15.0 | 0.00 | 0.00 | 0.00 | 34 | |
| 20260503224409 | 92 | 222 | 10.0 | 16.0 | 0.00 | 0.00 | 0.00 | 33 | |
| 20260503223909 | 92 | 229 | 8.0 | 15.0 | 0.00 | 0.00 | 0.00 | 34 | |
| 20260503223755 | 91 | 221 | 6.0 | 12.0 | 0.00 | 0.00 | 0.00 | 33 | |
| 20260503223409 | 91 | 221 | 6.0 | 12.0 | 0.00 | 0.00 | 0.00 | 33 | |
| 20260503223238 | 90 | 198 | 5.0 | 12.0 | 0.00 | 0.00 | 0.00 | 33 | |
| 20260503222909 | 90 | 198 | 5.0 | 12.0 | 0.00 | 0.00 | 0.00 | 33 | |
| 20260503222815 | 90 | 221 | 8.0 | 12.0 | 0.00 | 0.00 | 0.00 | 34 | |
| 20260503222409 | 90 | 221 | 8.0 | 12.0 | 0.00 | 0.00 | 0.00 | 34 | |
| 20260503222255 | 90 | 239 | 5.0 | 8.0 | 0.00 | 0.00 | 0.00 | 34 | |
| 20260503221909 | 90 | 239 | 5.0 | 8.0 | 0.00 | 0.00 | 0.00 | 34 | |
| 20260503221809 | 90 | 226 | 5.0 | 10.0 | 0.00 | 0.00 | 0.00 | 34 | |
| 20260503221411 | 89 | 229 | 6.0 | 11.0 | 0.00 | 0.00 | 0.00 | 34 | |
| 20260503221409 | 90 | 226 | 5.0 | 10.0 | 0.00 | 0.00 | 0.00 | 34 | |
| 20260503220912 | 89 | 229 | 6.0 | 11.0 | 0.00 | 0.00 | 0.00 | 34 | |
| 20260503220710 | 89 | 238 | 6.0 | 11.0 | 0.00 | 0.00 | 0.00 | 34 | |
| 20260503220409 | 89 | 238 | 6.0 | 11.0 | 0.00 | 0.00 | 0.00 | 34 | |
| 20260503220258 | 89 | 233 | 6.0 | 9.0 | 0.00 | 0.00 | 0.00 | 34 | |
| 20260503215910 | 89 | 233 | 6.0 | 9.0 | 0.00 | 0.00 | 0.00 | 34 | |
| 20260503215814 | 89 | 249 | 4.0 | 8.0 | 0.00 | 0.00 | 0.00 | 34 | |
| 20260503215506 | 89 | 133 | 3.0 | 10.0 | 0.00 | 0.00 | 0.00 | 33 | |
| 20260503215409 | 89 | 249 | 4.0 | 8.0 | 0.00 | 0.00 | 0.00 | 34 | |
| 20260503214909 | 89 | 133 | 3.0 | 10.0 | 0.00 | 0.00 | 0.00 | 33 | |
| 20260503214749 | 89 | 220 | 6.0 | 13.0 | 0.00 | 0.00 | 0.00 | 34 | |
| 20260503214409 | 89 | 220 | 6.0 | 13.0 | 0.00 | 0.00 | 0.00 | 34 | |
| 20260503214339 | 90 | 233 | 8.0 | 13.0 | 0.00 | 0.00 | 0.00 | 34 | |
| 20260503213909 | 90 | 233 | 8.0 | 13.0 | 0.00 | 0.00 | 0.00 | 34 | |
| 20260503213753 | 91 | 233 | 7.0 | 12.0 | 0.00 | 0.00 | 0.00 | 34 | |
| 20260503213409 | 91 | 233 | 7.0 | 12.0 | 0.00 | 0.00 | 0.00 | 34 | |
| 20260503213332 | 92 | 215 | 5.0 | 12.0 | 0.00 | 0.00 | 0.00 | 33 | |
| 20260503212909 | 92 | 215 | 5.0 | 12.0 | 0.00 | 0.00 | 0.00 | 33 | |
| 20260503212851 | 92 | 201 | 5.0 | 8.0 | 0.00 | 0.00 | 0.00 | 33 | |
| 20260503212412 | 92 | 201 | 5.0 | 8.0 | 0.00 | 0.00 | 0.00 | 33 | |
| 20260503212213 | 92 | 101 | 4.0 | 8.0 | 0.00 | 0.00 | 0.00 | 32 | |
| 20260503211909 | 92 | 101 | 4.0 | 8.0 | 0.00 | 0.00 | 0.00 | 32 | |
| 20260503211809 | 90 | 135 | 4.0 | 11.0 | 0.00 | 0.00 | 0.00 | 33 | |
| 20260503211559 | 89 | 216 | 5.0 | 11.0 | 0.00 | 0.00 | 0.00 | 34 | |
| 20260503211516 | 89 | 216 | 5.0 | 11.0 | 0.00 | 0.00 | 0.00 | 34 | |
| 20260503211409 | 90 | 135 | 4.0 | 11.0 | 0.00 | 0.00 | 0.00 | 33 | |
| 20260503210910 | 89 | 216 | 5.0 | 11.0 | 0.00 | 0.00 | 0.00 | 34 | |
| 20260503210731 | 89 | 190 | 5.0 | 9.0 | 0.00 | 0.00 | 0.00 | 33 | |
| 20260503210419 | 89 | 190 | 5.0 | 9.0 | 0.00 | 0.00 | 0.00 | 33 | |
| 20260503210404 | 88 | 174 | 4.0 | 9.0 | 0.00 | 0.00 | 0.00 | 33 | |
| 20260503205910 | 88 | 174 | 4.0 | 9.0 | 0.00 | 0.00 | 0.00 | 33 | |
| 20260503205619 | 88 | 92 | 4.0 | 8.0 | 0.00 | 0.00 | 0.00 | 33 | |
| 20260503205410 | 88 | 92 | 4.0 | 8.0 | 0.00 | 0.00 | 0.00 | 33 | |
| 20260503205253 | 87 | 86 | 3.0 | 9.0 | 0.00 | 0.00 | 0.00 | 32 | |
| 20260503204910 | 87 | 86 | 3.0 | 9.0 | 0.00 | 0.00 | 0.00 | 32 | |
| 20260503204603 | 87 | 90 | 3.0 | 9.0 | 0.00 | 0.00 | 0.00 | 33 | |
| 20260503204410 | 87 | 90 | 3.0 | 9.0 | 0.00 | 0.00 | 0.00 | 33 | |
| 20260503204223 | 87 | 107 | 3.0 | 10.0 | 0.00 | 0.00 | 0.00 | 33 | |
| 20260503203909 | 87 | 107 | 3.0 | 10.0 | 0.00 | 0.00 | 0.00 | 33 | |
| 20260503203654 | 88 | 164 | 5.0 | 10.0 | 0.00 | 0.00 | 0.00 | 34 | |
| 20260503203409 | 88 | 164 | 5.0 | 10.0 | 0.00 | 0.00 | 0.00 | 34 | |
| 20260503203203 | 87 | 87 | 3.0 | 8.0 | 0.00 | 0.00 | 0.00 | 34 | |
| 20260503202910 | 87 | 87 | 3.0 | 8.0 | 0.00 | 0.00 | 0.00 | 34 | |
| 20260503202232 | 87 | 210 | 5.0 | 10.0 | 0.00 | 0.00 | 0.00 | 33 | |
| 20260503202027 | 86 | 130 | 5.0 | 9.0 | 0.00 | 0.00 | 0.00 | 33 | |
| 20260503201954 | 86 | 130 | 5.0 | 9.0 | 0.00 | 0.00 | 0.00 | 33 | |
| 20260503201910 | 87 | 210 | 5.0 | 10.0 | 0.00 | 0.00 | 0.00 | 33 | |
| 20260503201411 | 86 | 124 | 4.0 | 11.0 | 0.00 | 0.00 | 0.00 | 33 | |
| 20260503200910 | 86 | 124 | 4.0 | 11.0 | 0.00 | 0.00 | 0.00 | 33 | |
| 20260503200721 | 85 | 180 | 4.0 | 11.0 | 0.00 | 0.00 | 0.00 | 33 | |
| 20260503200410 | 85 | 180 | 4.0 | 11.0 | 0.00 | 0.00 | 0.00 | 33 | |
| 20260503200334 | 86 | 133 | 6.0 | 10.0 | 0.00 | 0.00 | 0.00 | 33 | |
| 20260503195910 | 86 | 133 | 6.0 | 10.0 | 0.00 | 0.00 | 0.00 | 33 | |
| 20260503195849 | 86 | 167 | 5.0 | 10.0 | 0.00 | 0.00 | 0.00 | 33 | |
| 20260503195410 | 86 | 167 | 5.0 | 10.0 | 0.00 | 0.00 | 0.00 | 33 | |
| 20260503195149 | 86 | 136 | 5.0 | 10.0 | 0.00 | 0.00 | 0.00 | 34 | |
| 20260503194910 | 86 | 136 | 5.0 | 10.0 | 0.00 | 0.00 | 0.00 | 34 | |
| 20260503194634 | 87 | 187 | 6.0 | 11.0 | 0.00 | 0.00 | 0.00 | 33 | |
| 20260503194410 | 87 | 187 | 6.0 | 11.0 | 0.00 | 0.00 | 0.00 | 33 | |
| 20260503194253 | 87 | 141 | 5.0 | 11.0 | 0.00 | 0.00 | 0.00 | 33 | |
| 20260503193910 | 87 | 141 | 5.0 | 11.0 | 0.00 | 0.00 | 0.00 | 33 | |
| 20260503193751 | 88 | 166 | 5.0 | 11.0 | 0.00 | 0.00 | 0.00 | 32 | |
| 20260503193410 | 88 | 166 | 5.0 | 11.0 | 0.00 | 0.00 | 0.00 | 32 | |
| 20260503193238 | 88 | 141 | 7.0 | 11.0 | 0.00 | 0.00 | 0.00 | 33 | |
| 20260503192910 | 88 | 141 | 7.0 | 11.0 | 0.00 | 0.00 | 0.00 | 33 | |
| 20260503192752 | 88 | 127 | 5.0 | 11.0 | 0.00 | 0.00 | 0.00 | 32 | |
| 20260503192410 | 88 | 127 | 5.0 | 11.0 | 0.00 | 0.00 | 0.00 | 32 | |
| 20260503192253 | 87 | 135 | 5.0 | 10.0 | 0.00 | 0.00 | 0.00 | 33 | |
| 20260503191910 | 87 | 135 | 5.0 | 10.0 | 0.00 | 0.00 | 0.00 | 33 | |
| 20260503191731 | 86 | 139 | 5.0 | 12.0 | 0.00 | 0.00 | 0.00 | 33 | |
| 20260503191410 | 86 | 139 | 5.0 | 12.0 | 0.00 | 0.00 | 0.00 | 33 | |
| 20260503191352 | 85 | 138 | 6.0 | 12.0 | 0.00 | 0.00 | 0.00 | 34 | |
| 20260503190910 | 85 | 138 | 6.0 | 12.0 | 0.00 | 0.00 | 0.00 | 34 | |
| 20260503190842 | 85 | 120 | 6.0 | 12.0 | 0.00 | 0.00 | 0.00 | 34 | |
| 20260503190410 | 85 | 120 | 6.0 | 12.0 | 0.00 | 0.00 | 0.00 | 34 | |
| 20260503190250 | 84 | 114 | 5.0 | 12.0 | 0.00 | 0.00 | 0.00 | 34 | |
| 20260503185910 | 84 | 114 | 5.0 | 12.0 | 0.00 | 0.00 | 0.00 | 34 | |
| 20260503185752 | 83 | 146 | 5.0 | 12.0 | 0.00 | 0.00 | 0.00 | 34 | |
| 20260503185410 | 83 | 146 | 5.0 | 12.0 | 0.00 | 0.00 | 0.00 | 34 | |
| 20260503185325 | 83 | 124 | 6.0 | 12.0 | 0.00 | 0.00 | 0.00 | 34 | |
| 20260503184909 | 83 | 124 | 6.0 | 12.0 | 0.00 | 0.00 | 0.00 | 34 | |
| 20260503184802 | 83 | 130 | 6.0 | 12.0 | 0.00 | 0.00 | 0.00 | 34 | |
| 20260503184415 | 83 | 143 | 5.0 | 11.0 | 0.00 | 0.00 | 0.00 | 34 | |
| 20260503184410 | 83 | 130 | 6.0 | 12.0 | 0.00 | 0.00 | 0.00 | 34 | |
| 20260503183910 | 83 | 143 | 5.0 | 11.0 | 0.00 | 0.00 | 0.00 | 34 | |
| 20260503183758 | 83 | 132 | 6.0 | 13.0 | 0.00 | 0.00 | 0.00 | 34 | |
| 20260503183410 | 83 | 132 | 6.0 | 13.0 | 0.00 | 0.00 | 0.00 | 34 | |
| 20260503183254 | 83 | 126 | 5.0 | 13.0 | 0.00 | 0.00 | 0.00 | 34 | |
| 20260503183029 | 83 | 131 | 5.0 | 11.0 | 0.00 | 0.00 | 0.00 | 34 | |
| 20260503182910 | 83 | 126 | 5.0 | 13.0 | 0.00 | 0.00 | 0.00 | 34 | |
| 20260503182441 | 83 | 131 | 6.0 | 11.0 | 0.00 | 0.00 | 0.00 | 34 | |
| 20260503182410 | 83 | 131 | 5.0 | 11.0 | 0.00 | 0.00 | 0.00 | 34 | |
| 20260503181911 | 83 | 131 | 6.0 | 11.0 | 0.00 | 0.00 | 0.00 | 34 | |
| 20260503181815 | 83 | 136 | 6.0 | 10.0 | 0.00 | 0.00 | 0.00 | 34 | |
| 20260503181410 | 83 | 136 | 6.0 | 10.0 | 0.00 | 0.00 | 0.00 | 34 | |
| 20260503180732 | 83 | 184 | 5.0 | 12.0 | 0.00 | 0.00 | 0.00 | 34 | |
| 20260503180410 | 83 | 184 | 5.0 | 12.0 | 0.00 | 0.00 | 0.00 | 34 | |
| 20260503180238 | 83 | 137 | 4.0 | 10.0 | 0.00 | 0.00 | 0.00 | 35 | |
| 20260503175910 | 83 | 137 | 4.0 | 10.0 | 0.00 | 0.00 | 0.00 | 35 | |
| 20260503175752 | 82 | 176 | 4.0 | 8.0 | 0.00 | 0.00 | 0.00 | 34 | |
| 20260503175410 | 82 | 176 | 4.0 | 8.0 | 0.00 | 0.00 | 0.00 | 34 | |
| 20260503174910 | 82 | 178 | 5.0 | 11.0 | 0.00 | 0.00 | 0.00 | 34 | |
| 20260503174759 | 82 | 148 | 6.0 | 11.0 | 0.00 | 0.00 | 0.00 | 34 | |
| 20260503174410 | 82 | 148 | 6.0 | 11.0 | 0.00 | 0.00 | 0.00 | 34 | |
| 20260503174222 | 82 | 139 | 6.0 | 11.0 | 0.00 | 0.00 | 0.00 | 35 | |
| 20260503173910 | 82 | 139 | 6.0 | 11.0 | 0.00 | 0.00 | 0.00 | 35 | |
| 20260503173814 | 83 | 137 | 6.0 | 11.0 | 0.00 | 0.00 | 0.00 | 34 | |
| 20260503173410 | 83 | 137 | 6.0 | 11.0 | 0.00 | 0.00 | 0.00 | 34 | |
| 20260503173323 | 83 | 144 | 6.0 | 11.0 | 0.00 | 0.00 | 0.00 | 34 | |
| 20260503172910 | 83 | 144 | 6.0 | 11.0 | 0.00 | 0.00 | 0.00 | 34 | |
| 20260503172815 | 83 | 128 | 6.0 | 11.0 | 0.00 | 0.00 | 0.00 | 34 | |
| 20260503172410 | 83 | 128 | 6.0 | 11.0 | 0.00 | 0.00 | 0.00 | 34 | |
| 20260503172354 | 83 | 141 | 4.0 | 9.0 | 0.00 | 0.00 | 0.00 | 34 | |
| 20260503171943 | 83 | 137 | 5.0 | 9.0 | 0.00 | 0.00 | 0.00 | 35 | |
| 20260503171910 | 83 | 141 | 4.0 | 9.0 | 0.00 | 0.00 | 0.00 | 34 | |
| 20260503171410 | 83 | 137 | 5.0 | 9.0 | 0.00 | 0.00 | 0.00 | 35 | |
| 20260503170921 | 83 | 135 | 3.0 | 6.0 | 0.00 | 0.00 | 0.00 | 34 | |
| 20260503170910 | 83 | 141 | 5.0 | 8.0 | 0.00 | 0.00 | 0.00 | 35 | |
| 20260503170410 | 83 | 135 | 3.0 | 6.0 | 0.00 | 0.00 | 0.00 | 34 | |
| 20260503170256 | 83 | 91 | 3.0 | 7.0 | 0.00 | 0.00 | 0.00 | 34 | |
| 20260503150910 | 74 | 66 | 3.0 | 5.0 | 0.00 | 0.00 | 0.00 | 35 | |
| 20260503150712 | 74 | 62 | 3.0 | 5.0 | 0.00 | 0.00 | 0.00 | 35 | |
| 20260503150355 | 74 | 62 | 3.0 | 5.0 | 0.00 | 0.00 | 0.00 | 35 | |
| 20260503150220 | 74 | 83 | 3.0 | 5.0 | 0.00 | 0.00 | 0.00 | 35 | |
| 20260503140238 | 69 | 73 | 0.0 | 4.0 | 0.00 | 0.00 | 0.00 | 34 | |
| 20260503131355 | 67 | 67 | 3.0 | 6.0 | 0.00 | 0.00 | 0.00 | 34 | |
| 20260503131238 | 67 | 66 | 2.0 | 6.0 | 0.00 | 0.00 | 0.00 | 34 | |
| 20260503130855 | 67 | 66 | 2.0 | 6.0 | 0.00 | 0.00 | 0.00 | 34 | |
| 20260503130757 | 66 | 66 | 0.0 | 5.0 | 0.00 | 0.00 | 0.00 | 34 | |
| 20260503130355 | 66 | 66 | 0.0 | 5.0 | 0.00 | 0.00 | 0.00 | 34 | |
| 20260503130231 | 66 | 89 | 0.0 | 5.0 | 0.00 | 0.00 | 0.00 | 34 | |
| 20260503110355 | 67 | 89 | 0.0 | 0.0 | 0.00 | 0.00 | 0.00 | 34 | |
| 20260503110255 | 67 | 76 | 0.0 | 0.0 | 0.00 | 0.00 | 0.00 | 34 | |
| 20260503090355 | 68 | 99 | 0.0 | 4.0 | 0.00 | 0.00 | 0.00 | 34 | |
| 20260503081355 | 68 | 74 | 0.0 | 4.0 | 0.00 | 0.00 | 0.00 | 33 | |
| 20260503080855 | 68 | 78 | 0.0 | 5.0 | 0.00 | 0.00 | 0.00 | 34 | |
| 20260503080355 | 68 | 68 | 1.0 | 5.0 | 0.00 | 0.00 | 0.00 | 33 | |
| 20260503072855 | 67 | 30 | 0.0 | 0.0 | 0.00 | 0.00 | 0.00 | 32 | |
| 20260503072355 | 67 | 351 | 0.0 | 0.0 | 0.00 | 0.00 | 0.00 | 32 | |
| 20260503072208 | 67 | 31 | 0.0 | 0.0 | 0.00 | 0.00 | 0.00 | 32 | |
| 20260503071855 | 67 | 31 | 0.0 | 0.0 | 0.00 | 0.00 | 0.00 | 32 | |
| 20260503071541 | 68 | 260 | 0.0 | 0.0 | 0.00 | 0.00 | 0.00 | 34 | |
| 20260503071539 | 68 | 288 | 0.0 | 0.0 | 0.00 | 0.00 | 0.00 | 32 | |
| 20260503071356 | 68 | 260 | 0.0 | 0.0 | 0.00 | 0.00 | 0.00 | 34 | |
| 20260503070855 | 68 | 288 | 0.0 | 0.0 | 0.00 | 0.00 | 0.00 | 32 | |
| 20260503070355 | 68 | 58 | 0.0 | 0.0 | 0.00 | 0.00 | 0.00 | 31 |